JAPN · Horizon Kinetics Japan Owner Operator ETF ETF
$25.92
+0.32 (+1.23%)
At close · Sep 4
Weekly off-exchange (dark pool / OTC) trading volume reported to FINRA under its OTC/ATS Transparency data. ATS volume is executed on alternating trading systems (dark pools); non-ATS OTC is other over-the-counter dealer volume. The off-exchange share is total off-exchange volume as a percentage of consolidated weekly trading volume for the same Monday–Friday week.
Off-Exchange Volume History
| Week Start | ATS Volume | Non-ATS OTC Volume | Total Off-Exchange | % of FINRA Weekly Volume |
|---|---|---|---|---|
| 2026-07-27 | 11,268 | 18,799 | 30,067 | 41.1% |
| 2026-07-20 | 6,140 | 10,112 | 16,252 | 60.9% |
| 2026-07-13 | 4,825 | 4,001 | 8,826 | 50.1% |
| 2026-07-06 | 0 | 7,977 | 7,977 | 45.6% |
| 2026-06-29 | 2,093 | 9,144 | 11,237 | 41.8% |
| 2026-06-22 | 1,780 | 14,177 | 15,957 | 56.2% |
| 2026-06-15 | 717 | 5,526 | 6,243 | 50.8% |
| 2026-06-08 | 198 | 8,610 | 8,808 | 68.3% |
| 2026-06-01 | 100 | 9,081 | 9,181 | 35.2% |
| 2026-05-25 | 400 | 17,839 | 18,239 | 77.3% |
| 2026-05-18 | 684 | 14,872 | 15,556 | 75.1% |
| 2026-05-11 | 1,497 | 36,007 | 37,504 | 86.0% |
| 2026-05-04 | 3,094 | 17,487 | 20,581 | 67.7% |
| 2026-04-27 | 2,477 | 15,953 | 18,430 | 62.1% |
| 2026-04-20 | 767 | 14,410 | 15,177 | 61.0% |
| 2026-04-13 | 100 | 14,561 | 14,661 | 54.1% |
| 2026-04-06 | 728 | 12,388 | 13,116 | 66.6% |
| 2026-03-30 | 284 | 4,758 | 5,042 | 42.4% |
| 2026-03-23 | 5,838 | 17,238 | 23,076 | 46.7% |
| 2026-03-16 | 4,845 | 6,968 | 11,813 | 39.4% |
| 2026-03-09 | 9,192 | 10,699 | 19,891 | 65.4% |
| 2026-03-02 | 2,734 | 15,810 | 18,544 | 31.0% |
| 2026-02-23 | 3,920 | 12,960 | 16,880 | 48.2% |
| 2026-02-16 | 1,573 | 23,028 | 24,601 | 68.0% |
| 2026-02-09 | 2,470 | 79,754 | 82,224 | 66.5% |
| 2026-02-02 | 4,200 | 33,200 | 37,400 | 63.8% |
| 2026-01-26 | 5,338 | 19,258 | 24,596 | 62.0% |
| 2026-01-19 | 3,960 | 54,752 | 58,712 | 77.6% |
| 2026-01-12 | 28,633 | 18,523 | 47,156 | 50.9% |
| 2026-01-05 | 16,115 | 21,583 | 37,698 | 39.6% |
| 2025-12-29 | 4,689 | 24,914 | 29,603 | 61.2% |
| 2025-12-22 | 3,212 | 25,042 | 28,254 | 72.4% |
| 2025-12-15 | 13,041 | 67,688 | 80,729 | 71.1% |
| 2025-12-08 | 9,377 | 27,850 | 37,227 | 65.9% |
| 2025-12-01 | 5,234 | 38,388 | 43,622 | 67.4% |
| 2025-11-24 | 6,584 | 29,474 | 36,058 | 74.0% |
| 2025-11-17 | 747 | 50,359 | 51,106 | 68.6% |
| 2025-11-10 | 4,104 | 29,806 | 33,910 | 70.8% |
| 2025-11-03 | 3,896 | 24,520 | 28,416 | 60.1% |
| 2025-10-27 | 5,080 | 16,354 | 21,434 | 44.3% |
| 2025-10-20 | 4,544 | 37,342 | 41,886 | 66.4% |
| 2025-10-13 | 6,761 | 15,174 | 21,935 | 54.3% |
| 2025-10-06 | 11,458 | 76,616 | 88,074 | 68.4% |
| 2025-09-29 | 52,448 | 69,598 | 122,046 | 77.5% |
| 2025-09-22 | 2,351 | 20,872 | 23,223 | 62.3% |
| 2025-09-15 | 8,373 | 22,708 | 31,081 | 59.8% |
| 2025-09-08 | 9,002 | 22,038 | 31,040 | 50.3% |
Showing 1–47 of 47 weeks